Location: Beuerbach
(48.1459°N, 10.9174°E)
Time: 20:14:18
(UTC+00:00)

SL-16 R/B - Pass Details

Date: 12 August 2024
Orbit: 842 x 845 km, 71.0° (Epoch: 07 September)

Event Time Altitude Azimuth Distance (km) Brightness Sun altitude
Exits shadow 02:10:08 - 285° (WNW) 3,420 5.1 -16.7°
Rises 02:10:11 0° 285° (WNW) 3,405 5.1 -16.7°
Reaches altitude 10° 02:15:37 10° 328° (NNW) 2,475 4.8 -16.1°
Maximum altitude 02:16:17 10° 335° (NNW) 2,462 4.9 -16.0°
Drops below altitude 10° 02:16:58 10° 342° (NNW) 2,476 5.0 -15.9°
Sets 02:22:26 0° 25° (NNE) 3,416 6.7 -15.3°
